Location: Geçitköy
(36.7327°N, 29.8010°E)
Time: 18:45:45
(UTC+00:00)

Cosmos 2366 rocket - Pass Details

Date: 12 January 2026
Orbit: 955 x 995 km, 82.9° (Epoch: 10 February)

Event Time Altitude Azimuth Distance (km) Brightness Sun altitude
Rises 16:01:59 0° 355° (N) 3,709 6.9 -11.3°
Reaches altitude 10° 16:04:31 10° 358° (N) 2,760 6.2 -11.8°
Maximum altitude 16:10:52 72° 83° (E) 1,044 4.0 -13.0°
Drops below altitude 10° 16:17:10 10° 167° (SSE) 2,751 6.4 -14.2°
Sets 16:19:42 0° 169° (S) 3,695 7.1 -14.7°
